[[{"header":{"parameterUnit":"m.s-1","parameterCategory":1,"la1":30.2991,"la2":30.254,"lo1":-89.0895,"lo2":-89.0444,"dy":0.0017,"dx":0.0017,"nx":28,"ny":28,"refTime":"2024-06-25T03:00:00:Z","depth":0,"parameterNumber":2,"parameterNumberName":"U-component_of_WINDS"},"data":[0,0,0,0,0,0,0,0,0,0,0,0,0,0,0,0,0,0,0,0,0,0,0,0,0,0,0,0,0,0,0,0,0,0,0,0,0,0,0,0,0,0,0,0,0,0,0,0,0,0,0,0,0,0,0,0,0,0,3.7011,3.7012,0,3.7087,3.7087,3.7088,3.6955,3.6951,3.6946,3.6942,3.7024,3.703,3.7036,0,0,0,0,0,0,0,0,0,0,0,0,0,3.6757,3.6763,3.7011,3.7012,3.7013,3.7086,3.7087,3.7088,3.6956,3.6951,3.6945,3.694,3.7022,3.7029,3.7037,0,0,0,0,0,0,0,0,0,0,0,0,0,3.6854,3.6765,3.7011,3.6956,3.6952,3.7086,3.7087,3.7089,3.6957,3.695,3.6944,3.6937,3.7019,3.7029,3.7038,3.7231,0,0,3.7067,3.7071,0,0,0,0,0,0,0,0,3.6849,3.6863,3.6963,3.696,3.6955,3.7004,3.7028,3.7137,3.6959,3.6955,3.6942,3.6934,3.7023,3.7032,3.7061,3.7235,3.7239,3.7068,3.7074,3.7078,3.7081,0,0,0,0,0,0,0,3.6842,3.6859,3.7041,3.6965,3.696,3.6929,3.6935,3.7048,3.7026,3.6955,3.6946,3.6956,3.702,3.7052,3.7062,3.724,3.7068,3.7076,3.7082,3.7086,3.7576,3.7583,0,0,0,0,0,0,3.6842,3.6855,3.7039,3.7043,3.6884,3.6939,3.6946,3.6996,3.7025,3.7022,3.6962,3.695,3.7039,3.7051,3.7064,3.7292,3.7078,3.7087,3.7092,3.7569,3.7578,3.7586,0,0,0,0,0,0,3.6837,3.6859,3.7036,3.6947,3.6967,3.695,3.7007,3.7001,3.7033,3.7029,3.7025,3.6998,3.7034,3.7051,3.719,3.7293,3.7091,3.71,3.7561,3.7572,3.7582,3.775,0,0,0,0,0,0,3.683,3.6858,3.6931,3.6949,3.6972,3.716,3.7014,3.7007,3.7049,3.7034,3.7063,3.7061,3.703,3.7177,3.72,3.7303,3.7107,3.7551,3.7566,3.7579,3.7735,3.7765,3.7791,0,0,0,0,0,3.6821,3.6976,3.6935,3.6958,3.7062,3.7166,3.7179,3.7139,3.7058,3.7131,3.7129,3.706,3.7278,3.7192,3.7217,3.7324,3.7545,3.7562,3.7577,3.7723,3.776,3.7791,0,0,0,0,0,0,3.6972,3.6978,3.6932,3.7097,3.7132,3.7143,3.7234,3.7179,3.7239,3.7223,3.7172,3.718,3.733,3.7341,3.7245,3.7513,3.7398,3.742,3.75,3.7535,3.7562,3.7556,3.7115,0,0,0,0,0,3.7024,3.7107,3.7108,3.7254,3.7273,3.7251,3.7295,3.7261,3.7296,3.731,3.7318,3.7356,3.7432,3.7484,3.7555,3.7736,3.7741,3.7822,3.785,3.7873,3.7893,3.799,3.8026,3.764,3.764,3.764,0,0,3.7133,3.7147,3.7202,3.7284,3.7307,3.7395,3.7265,3.7363,3.7429,3.7326,3.7457,3.7465,3.7504,3.7665,3.7736,3.7679,3.8001,3.7894,3.7913,3.792,3.801,3.8047,3.8079,3.7651,3.7649,3.7647,0,0,3.7377,3.7395,3.7518,3.7544,3.7579,3.7564,3.7594,3.7613,3.7614,3.7745,3.7669,3.7747,3.788,3.7911,3.7944,3.8199,3.8138,3.8224,3.837,3.8465,3.8495,3.8522,3.8613,3.8646,3.8243,3.8244,3.8244,0,3.7508,3.7636,3.7589,3.7693,3.7731,3.7641,3.7765,3.7793,3.7851,3.788,3.7815,3.798,3.7999,3.8166,3.8228,3.8258,3.8291,3.822,3.8494,3.852,3.8545,3.8631,3.8665,3.8254,3.8253,3.8252,3.8251,0,3.7796,3.7887,3.7982,3.8038,3.8088,3.8202,3.8173,3.8229,3.8191,3.8182,3.8317,3.8337,3.841,3.8447,3.8412,3.861,3.8573,3.8502,3.8385,3.8592,3.8672,3.8705,3.8268,3.8265,3.8262,3.8259,0,0,3.8137,3.8165,3.8201,3.8225,3.8258,3.8327,3.8438,3.8507,3.8556,3.86,3.8691,3.8806,3.874,3.8778,3.8745,3.8828,3.9029,3.8747,3.8747,3.8798,3.9248,3.9301,3.934,3.8989,3.8995,3.9,3.9245,0,3.8378,3.8566,3.8527,3.8712,3.8795,3.871,3.8807,3.8838,3.8834,3.8904,3.89,3.8982,3.8889,3.8911,3.8989,3.8988,3.9119,3.897,3.9075,3.9079,3.9067,3.9382,3.9438,3.9668,3.9276,3.9281,3.9285,0,3.8685,3.8738,3.8931,3.895,3.8984,3.9071,3.9131,3.92,3.9234,3.9225,3.9267,3.9218,3.9329,3.9211,3.9363,3.9263,3.9303,3.931,3.9317,3.9326,3.9194,3.9398,3.9741,3.9775,3.9334,3.933,3.9326,0,3.8913,3.9033,3.9164,3.9188,3.9213,3.9277,3.9291,3.9318,3.9362,3.9416,3.9444,3.9511,3.9548,3.9601,3.9572,3.9489,3.9729,3.9609,3.9725,3.9727,3.978,3.9777,4.0133,3.9807,3.9807,3.9806,3.9805,0,3.9186,3.9308,3.9267,3.9347,3.9481,3.9435,3.957,3.9574,3.9599,3.968,3.9612,3.9689,3.9646,3.9721,3.9699,3.9829,3.9846,3.9842,3.9835,3.9848,3.9849,3.9874,3.9857,3.9815,3.9813,3.9811,3.981,0,3.9464,3.9441,3.9578,3.9591,3.9597,3.9696,3.9707,3.9783,3.9773,3.9876,3.9898,3.9883,3.9967,3.9943,4.0036,4.0021,4.0184,4.0157,4.0172,4.0165,4.0283,4.0272,4.0668,4.0718,4.036,4.0363,4.0366,0,3.9639,3.9731,3.9753,3.9802,3.982,3.99,3.9944,3.9903,3.9952,3.9998,4.0069,4.0147,4.0207,4.0346,4.0344,4.0414,4.0388,4.0522,4.0398,4.0408,4.0389,4.0384,4.0393,4.0546,4.0551,4.0554,4.0557,0,3.9954,3.9938,4.0003,4.0066,4.0121,4.0169,4.021,4.0254,4.0216,4.0276,4.036,4.0407,4.05,4.0578,4.0642,4.0658,4.0602,4.0596,4.0626,4.064,4.0645,4.0644,4.0239,4.0587,4.0584,4.0581,4.058,4.0579,4.0185,4.0262,4.029,4.0366,4.0392,4.0433,4.0504,4.0503,4.0572,4.0644,4.0616,4.0713,4.0746,4.0825,4.0849,4.0925,4.0874,4.0919,4.093,4.0942,4.0956,4.0634,4.0937,4.0936,4.0935,4.0935,4.0934,0,4.0495,4.0508,4.0579,4.0638,4.0699,4.0639,4.0682,4.0737,4.0823,4.0857,4.0917,4.1015,4.1091,4.1095,4.1166,4.1226,4.1203,4.1247,4.1241,4.1246,4.0998,4.0964,4.1265,4.1265,4.1264,4.1264,4.1264,4.1264,4.0663,4.079,4.0778,4.0918,4.0931,4.1024,4.1054,4.1092,4.1118,4.123,4.1292,4.1294,4.1316,4.1388,4.1456,4.1455,4.1485,4.1538,4.1528,4.1296,4.1263,4.1232,4.12,4.1545,4.1546,4.177,4.1772,4.1774]},{"header":{"parameterUnit":"m.s-1","parameterCategory":1,"la1":30.2991,"la2":30.254,"lo1":-89.0895,"lo2":-89.0444,"dy":0.0017,"dx":0.0017,"nx":28,"ny":28,"refTime":"2024-06-25T03:00:00:Z","depth":0,"parameterNumber":3,"parameterNumberName":"V-component_of_WINDS"},"data":[0,0,0,0,0,0,0,0,0,0,0,0,0,0,0,0,0,0,0,0,0,0,0,0,0,0,0,0,0,0,0,0,0,0,0,0,0,0,0,0,0,0,0,0,0,0,0,0,0,0,0,0,0,0,0,0,0,0,3.6911,3.6913,0,3.7083,3.7085,3.7087,3.7102,3.71,3.7098,3.7096,3.727,3.7276,3.7283,0,0,0,0,0,0,0,0,0,0,0,0,0,3.6591,3.6597,3.6911,3.6913,3.6915,3.7083,3.7085,3.7088,3.7102,3.71,3.7097,3.7095,3.7268,3.7276,3.7283,0,0,0,0,0,0,0,0,0,0,0,0,0,3.6743,3.6599,3.691,3.6942,3.6947,3.7082,3.7085,3.7088,3.7102,3.71,3.7097,3.7094,3.7266,3.7275,3.7284,3.7399,0,0,3.7313,3.7318,0,0,0,0,0,0,0,0,3.6735,3.6755,3.6936,3.6941,3.6946,3.7068,3.7037,3.7192,3.7103,3.7043,3.7096,3.7093,3.7205,3.7219,3.7258,3.7407,3.7414,3.7314,3.732,3.7324,3.7327,0,0,0,0,0,0,0,3.6724,3.6748,3.6979,3.6938,3.6945,3.6947,3.6966,3.7066,3.7138,3.7048,3.705,3.707,3.7207,3.7249,3.7262,3.7417,3.7314,3.7323,3.7328,3.7332,3.7668,3.7671,0,0,0,0,0,0,3.6708,3.6739,3.6973,3.6984,3.6831,3.6955,3.6976,3.7032,3.7137,3.715,3.7072,3.707,3.7234,3.7251,3.7268,3.7409,3.7324,3.7333,3.7339,3.7665,3.7668,3.7672,0,0,0,0,0,0,3.6701,3.6729,3.6967,3.6862,3.6893,3.6964,3.7026,3.7036,3.7078,3.7155,3.7167,3.7101,3.7232,3.7255,3.7366,3.7415,3.7337,3.7346,3.7661,3.7666,3.767,3.769,0,0,0,0,0,0,3.6692,3.6726,3.6771,3.6863,3.6898,3.7063,3.7029,3.7042,3.7094,3.7093,3.7185,3.7198,3.7232,3.7352,3.7376,3.7427,3.7354,3.7657,3.7663,3.7669,3.7686,3.7695,3.7704,0,0,0,0,0,3.668,3.677,3.6773,3.6802,3.6956,3.7065,3.7085,3.7123,3.7098,3.7144,3.7193,3.7195,3.7406,3.7363,3.739,3.7444,3.7654,3.7661,3.7668,3.7682,3.7693,3.7703,0,0,0,0,0,0,3.6681,3.6782,3.6788,3.6909,3.6979,3.7068,3.7126,3.7134,3.7212,3.7207,3.725,3.727,3.738,3.7424,3.7374,3.756,3.7527,3.754,3.7528,3.754,3.7548,3.7535,3.7361,0,0,0,0,0,3.6696,3.6777,3.6861,3.696,3.6995,3.7054,3.7103,3.7126,3.72,3.7229,3.7286,3.7357,3.7439,3.7492,3.7571,3.7692,3.7712,3.7743,3.7751,3.7758,3.7769,3.7835,3.7849,3.7695,3.7695,3.7695,0,0,3.6726,3.6791,3.684,3.6962,3.7018,3.7101,3.7079,3.7167,3.7228,3.7242,3.7351,3.7395,3.7477,3.7593,3.7647,3.7632,3.7816,3.7768,3.7773,3.7779,3.7844,3.7858,3.7871,3.77,3.7699,3.7699,0,0,3.6824,3.6882,3.6971,3.7028,3.7113,3.7152,3.7174,3.7262,3.7292,3.7402,3.7414,3.7486,3.7627,3.7684,3.7732,3.785,3.7854,3.7875,3.7921,3.7985,3.7997,3.8008,3.8049,3.8064,3.7885,3.7885,3.7885,0,3.6851,3.6976,3.7015,3.7103,3.7156,3.7172,3.7262,3.7315,3.7422,3.7458,3.744,3.7617,3.7672,3.7802,3.7831,3.7869,3.7894,3.7864,3.7992,3.8004,3.8014,3.8054,3.807,3.7887,3.7887,3.7887,3.7886,0,3.7004,3.7091,3.7152,3.7256,3.7315,3.7404,3.7455,3.7511,3.7528,3.7569,3.768,3.7748,3.7841,3.7873,3.7891,3.8005,3.7993,3.7984,3.7951,3.803,3.8068,3.8084,3.789,3.7889,3.7888,3.7888,0,0,3.7107,3.7231,3.7253,3.73,3.7395,3.7463,3.7551,3.7643,3.769,3.7763,3.7837,3.7956,3.7947,3.8001,3.8025,3.8081,3.8169,3.8064,3.8067,3.8081,3.8298,3.8304,3.8322,3.8173,3.8176,3.8179,3.8291,0,3.7215,3.7374,3.7411,3.7547,3.7627,3.7644,3.7721,3.7787,3.7827,3.79,3.7944,3.8027,3.801,3.8042,3.8098,3.8147,3.8214,3.8139,3.8242,3.8245,3.8221,3.8342,3.8349,3.8452,3.8306,3.8309,3.8311,0,3.7362,3.7439,3.7583,3.7667,3.7702,3.7771,3.7858,3.7928,3.8003,3.8028,3.8088,3.8106,3.8198,3.8161,3.8287,3.8236,3.828,3.831,3.8315,3.8325,3.8282,3.8355,3.8486,3.8501,3.8335,3.8333,3.8331,0,3.7422,3.7561,3.7665,3.7705,3.7806,3.7854,3.7898,3.7971,3.8024,3.8099,3.8133,3.8218,3.8265,3.8329,3.837,3.8339,3.8493,3.8459,3.8515,3.8514,3.8546,3.8543,3.8685,3.8576,3.8575,3.8575,3.8575,0,3.7538,3.7625,3.7693,3.7757,3.7855,3.7897,3.7992,3.8036,3.8101,3.8173,3.8192,3.8259,3.8309,3.8382,3.8415,3.8514,3.8534,3.8556,3.8564,3.8555,3.8552,3.8584,3.8577,3.8579,3.8578,3.8577,3.8577,0,3.7621,3.7671,3.7785,3.7871,3.7895,3.7963,3.8037,3.8099,3.8139,3.823,3.8254,3.8317,3.8404,3.8451,3.8561,3.8582,3.8693,3.8697,3.8668,3.8671,3.8724,3.8718,3.889,3.8915,3.8789,3.8791,3.8792,0,3.7692,3.7759,3.7853,3.7903,3.7948,3.8029,3.8082,3.8126,3.8181,3.8271,3.8322,3.8411,3.8484,3.8623,3.8677,3.8761,3.8766,3.8821,3.8779,3.8767,3.8766,3.8761,3.8768,3.8828,3.8829,3.883,3.8831,0,3.7812,3.7833,3.791,3.7995,3.8059,3.8129,3.8197,3.8237,3.8291,3.8352,3.8442,3.8498,3.861,3.8697,3.8785,3.883,3.8839,3.8844,3.8861,3.8852,3.8832,3.8843,3.8687,3.884,3.8839,3.8838,3.8838,3.8837,3.789,3.7951,3.8026,3.8111,3.8167,3.8231,3.8293,3.8341,3.8417,3.8512,3.8533,3.8628,3.87,3.8819,3.8866,3.894,3.8929,3.8954,3.896,3.8966,3.8967,3.8821,3.8956,3.8956,3.8956,3.8955,3.8955,0,3.801,3.806,3.8138,3.8233,3.8299,3.8304,3.8379,3.8435,3.8518,3.8585,3.8657,3.876,3.8844,3.8906,3.8992,3.9039,3.9046,3.906,3.9057,3.9067,3.8973,3.8949,3.9053,3.9053,3.9053,3.9053,3.9053,3.9053,3.8081,3.8183,3.8213,3.8342,3.8391,3.8484,3.8527,3.8585,3.8639,3.8753,3.8824,3.8864,3.8929,3.9019,3.9097,3.9113,3.9143,3.9157,3.9173,3.9084,3.9073,3.9063,3.9041,3.9164,3.9164,3.9261,3.9262,3.9262]}]]